User: anonymous   Login
Location: Caltech
(34.1382°N, 118.1253°W)
Time: 18:49:31
(UTC-07:00)
Language:

FO-29 - Orbit

View from above orbital plane
View from above orbital plane
View from above satellite
View from above satellite

Ground track
Ground track

The orbit data is extracted from the following two-line orbital elements,

1 24278U 96046B   17172.89612451 -.00000048 +00000-0 -99032-5 0  9994
2 24278 098.5633 055.5271 0349791 325.3771 032.5033 13.53076678029266
Epoch (UTC): 21 June 2017 21:30:25
Eccentricity: 0.0349791
inclination: 98.5633°
perigee height: 801 km
apogee height: 1321 km
right ascension of ascending node: 55.5271°
argument of perigee: 325.3771°
revolutions per day: 13.53076678
mean anomaly at epoch: 32.5033°
orbit number at epoch: 2926

The dashed part of the orbit path shows where the satellite is in the earth's shadow,  

DLR